Regional Weather Roundup
Issued by NWS

Home | Current Version | Previous Version | Text Only | Print | Product List | Glossary Off
Versions: 1 2 3 4 5 6 7 8 9 10 11 12 13 14 15 16 17 18 19 20 21 22 23 24 25 26 27 28 29 30 31 32 33 34 35 36 37 38 39 40 41 42 43 44 45 46 47 48 49 50

000
ASUS45 KCYS 281610
RWRWY

WYOMING REGIONAL WEATHER ROUNDUP
NATIONAL WEATHER SERVICE CHEYENNE WY
1000 AM MDT TUE JUL 28 2015

NOTE:  "FAIR" INDICATES FEW OR NO CLOUDS BELOW 12,000 FEET
WITH NO SIGNIFICANT WEATHER AND/OR OBSTRUCTIONS TO VISIBILITY.

WYZ001-281700-
YELLOWSTONE NATIONAL PARK

CITY           SKY/WX    TMP DP  RH WIND       PRES   REMARKS
LK YELLOWSTONE   N/A     41  32  70 W8        30.37R
W YELLOWSTONE  NOT AVBL

$$
WYZ002>013-054>058-071-098>099-281700-
NORTHERN WYOMING

CITY           SKY/WX    TMP DP  RH WIND       PRES   REMARKS
JACKSON        FAIR      52  30  43 NW10      30.34S
CODY           FAIR      57  30  35 W17G30    30.19R
GREYBULL       FAIR      64  33  31 SW6       30.14R
WORLAND        FAIR      64  33  31 E6        30.15R
SHERIDAN       FAIR      63  42  46 CALM      30.09R
BUFFALO        FAIR      60  41  49 E6        30.12R
GILLETTE       FAIR      63  40  42 W10       30.08S
HULETT         FAIR      63  37  39 W16G28    30.05S
NEWCASTLE      FAIR      63  37  39 NW15      30.09R

$$
WYZ014>020-022>026-101>103-281700-
CENTRAL WYOMING

CITY           SKY/WX    TMP DP  RH WIND       PRES   REMARKS
BIG PINEY      FAIR      53  27  36 N10G22    30.35R
PINEDALE       FAIR      52  27  37 NW17G23   30.34S
DUBOIS         FAIR      48  28  46 N14G26    30.31R
LANDER         FAIR      60  29  30 CALM      30.22R
RIVERTON       FAIR      62  25  24 W26G33    30.21S
CASPER         FAIR      64  24  21 W20G28    30.18R
DOUGLAS        FAIR      67  27  22 W26G32    30.14F

$$
WYZ021-027>030-104>119-281700-
SOUTHERN WYOMING

CITY           SKY/WX    TMP DP  RH WIND       PRES   REMARKS
EVANSTON       FAIR      56  22  26 SW9       30.36S
KEMMERER       FAIR      54  23  30 W13       30.36S
FORT BRIDGER   SUNNY     59  21  23 W12G18    30.38S
ROCK SPRINGS   FAIR      58  25  28 W16G24    30.33S
DIXON          FAIR      60  27  28 W6        30.34S
RAWLINS        FAIR      58  19  22 W22G29    30.29S
SARATOGA       FAIR      61  27  27 W17G23    30.32R
LARAMIE        FAIR      61  29  29 VRB5G17   30.24F
CHEYENNE       FAIR      68  32  26 NW21G32   30.18F
TORRINGTON     FAIR      72  33  24 NW13G23   30.09S
PINE BLUFFS    FAIR      72  30  21 NW32G41   30.11F

$$


USA.gov is the U.S. government's official web portal to all federal, state and local government web resources and services.